EW7150 Weather Reports


Display with metric or nautical units.
time (UTC)temp
F
wind
direction
speed
MPH
gust
MPH
rain 1hr
in
rain 24hr
in
rain mn
in
humidity
%
barometer
mb
20190425023122 53 180 0.0 0.0 0.00 0.00 0.00 49 1013.4
20190425022123 53 113 0.0 0.0 0.00 0.00 0.00 48 1013.8
20190425021122 53 113 0.0 0.0 0.00 0.00 0.00 47 1013.7
20190425020122 53 113 0.0 0.0 0.00 0.00 0.00 46 1013.7
20190425015122 54 113 0.0 0.0 0.00 0.00 0.00 46 1013.7
20190425014124 54 113 0.0 0.0 0.00 0.00 0.00 48 1013.5
20190425013122 54 113 0.0 0.0 0.00 0.00 0.00 48 1013.5
20190425012122 54 113 0.0 0.0 0.00 0.00 0.00 46 1013.8
20190425011122 54 113 0.0 0.0 0.00 0.00 0.00 45 1013.7
20190425010123 55 113 0.0 0.0 0.00 0.00 0.00 46 1013.6
20190425005124 55 113 0.0 0.0 0.00 0.00 0.00 47 1013.7
20190425004122 56 158 0.0 0.0 0.00 0.00 0.00 47 1013.8
20190425003122 56 180 0.0 0.0 0.00 0.00 0.00 46 1013.8
20190425002122 56 135 0.0 0.0 0.00 0.00 0.00 42 1013.8
20190425001126 57 113 0.0 0.0 0.00 0.00 0.00 42 1013.7
20190425000122 57 114 1.0 8.0 0.00 0.00 0.00 42 1013.8
20190424235122 57 180 0.0 0.0 0.00 0.00 0.00 50 1013.8
20190424234122 57 135 0.0 1.0 0.00 0.00 0.00 53 1013.7
20190424233123 58 146 1.0 9.0 0.00 0.00 0.00 53 1013.7
20190424232122 59 117 0.0 4.0 0.00 0.00 0.00 53 1013.8
20190424231122 59 113 0.0 2.0 0.00 0.00 0.00 53 1013.8
20190424230122 59 134 0.0 7.0 0.00 0.00 0.00 53 1013.9
20190424225122 60 148 2.0 11.0 0.00 0.00 0.00 51 1013.9
20190424224122 62 158 0.0 0.0 0.00 0.00 0.00 42 1013.7
20190424223122 63 203 0.0 0.0 0.00 0.00 0.00 39 1013.7
20190424222122 63 90 0.0 0.0 0.00 0.00 0.00 39 1013.6
20190424221122 63 113 0.0 0.0 0.00 0.00 0.00 38 1013.7
20190424220123 64 113 0.0 0.0 0.00 0.00 0.00 40 1013.6
20190424215126 64 158 0.0 0.0 0.00 0.00 0.00 40 1013.8
20190424214122 64 113 0.0 0.0 0.00 0.00 0.00 40 1013.7
20190424213122 65 158 0.0 0.0 0.00 0.00 0.00 40 1013.7
20190424212122 65 225 0.0 0.0 0.00 0.00 0.00 39 1013.9
20190424211122 63 203 0.0 0.0 0.00 0.00 0.00 40 1014.1
20190424210123 64 135 0.0 1.0 0.00 0.00 0.00 41 1014.4
20190424205123 64 202 0.0 1.0 0.00 0.00 0.00 42 1014.7
20190424204122 64 169 0.0 1.0 0.00 0.00 0.00 41 1014.8
20190424203122 65 203 0.0 0.0 0.00 0.00 0.00 39 1014.8
20190424202123 65 158 0.0 0.0 0.00 0.00 0.00 41 1014.7
20190424201122 66 202 0.0 1.0 0.00 0.00 0.00 42 1014.3
20190424200123 65 135 0.0 2.0 0.00 0.00 0.00 40 1014.2
20190424195123 66 161 0.0 3.0 0.00 0.00 0.00 40 1014.4
20190424194125 68 117 1.0 9.0 0.00 0.00 0.00 39 1014.5
20190424193124 69 158 0.0 0.0 0.00 0.00 0.00 39 1014.5
20190424192122 69 113 0.0 0.0 0.00 0.00 0.00 39 1014.7
20190424191122 71 113 0.0 0.0 0.00 0.00 0.00 37 1014.9
20190424190122 70 158 0.0 0.0 0.00 0.00 0.00 37 1015.2
20190424185125 69 180 0.0 0.0 0.00 0.00 0.00 38 1015.4
20190424184122 70 90 0.0 0.0 0.00 0.00 0.00 40 1015.6
20190424183123 69 248 0.0 0.0 0.00 0.00 0.00 38 1015.6
20190424182123 69 315 0.0 0.0 0.00 0.00 0.00 38 1016.0
20190424181123 71 113 0.0 0.0 0.00 0.00 0.00 41 1015.9
20190424180149 70 180 0.0 0.0 0.00 0.00 0.00 40 1016.1
20190424175124 68 270 0.0 0.0 0.00 0.00 0.00 40 1016.2
20190424174125 68 45 0.0 1.0 0.00 0.00 0.00 40 1016.4
20190424173122 69 270 0.0 0.0 0.00 0.00 0.00 41 1016.4
20190424172122 70 90 0.0 0.0 0.00 0.00 0.00 39 1016.7
20190424171122 67 270 0.0 1.0 0.00 0.00 0.00 44 1017.2
20190424170122 67 247 0.0 2.0 0.00 0.00 0.00 45 1017.4
20190424165122 66 135 0.0 0.0 0.00 0.00 0.00 47 1017.2
20190424164123 64 248 0.0 0.0 0.00 0.00 0.00 49 1017.2
20190424163122 64 203 0.0 0.0 0.00 0.00 0.00 48 1017.2
20190424162122 65 113 0.0 0.0 0.00 0.00 0.00 49 1017.1
20190424161123 64 158 0.0 0.0 0.00 0.00 0.00 51 1017.2
20190424160122 62 113 0.0 0.0 0.00 0.00 0.00 51 1017.4
20190424155124 62 113 0.0 0.0 0.00 0.00 0.00 54 1017.5
20190424154123 64 135 0.0 0.0 0.00 0.00 0.00 52 1017.6
20190424153122 62 270 0.0 0.0 0.00 0.00 0.00 54 1017.6
20190424152123 59 45 0.0 0.0 0.00 0.00 0.00 57 1017.7
20190424151126 60 113 0.0 0.0 0.00 0.00 0.00 55 1017.8
20190424150122 59 180 0.0 0.0 0.00 0.00 0.00 57 1017.8
20190424145122 57 203 0.0 0.0 0.00 0.00 0.00 61 1017.6
20190424144122 57 135 0.0 0.0 0.00 0.00 0.00 62 1017.8
20190424143122 57 113 0.0 0.0 0.00 0.00 0.00 61 1017.8
20190424142122 55 135 0.0 0.0 0.00 0.00 0.00 65 1018.0
20190424141122 53 270 0.0 0.0 0.00 0.00 0.00 67 1018.1
20190424140123 52 338 0.0 0.0 0.00 0.00 0.00 70 1018.0
20190424135122 54 203 0.0 0.0 0.00 0.00 0.00 67 1018.0
20190424134123 53 203 0.0 0.0 0.00 0.00 0.00 68 1018.1
20190424133122 51 45 0.0 0.0 0.00 0.00 0.00 71 1018.1
20190424132124 50 23 0.0 0.0 0.00 0.00 0.00 73 1018.1
20190424131122 49 23 0.0 0.0 0.00 0.00 0.00 73 1018.1
20190424130123 49 45 0.0 0.0 0.00 0.00 0.00 76 1018.2
20190424125122 47 23 0.0 0.0 0.00 0.00 0.00 78 1018.0
20190424124125 47 338 0.0 0.0 0.00 0.00 0.00 79 1018.0
20190424123123 46 23 0.0 0.0 0.00 0.00 0.00 81 1018.0
20190424122123 45 338 0.0 0.0 0.00 0.00 0.00 82 1017.9
20190424121122 44 23 0.0 0.0 0.00 0.00 0.00 85 1018.3
20190424120123 44 338 0.0 0.0 0.00 0.00 0.00 88 1018.4
20190424115126 43 293 0.0 0.0 0.00 0.00 0.00 89 1017.7
20190424114123 42 338 0.0 0.0 0.00 0.00 0.00 90 1017.6
20190424113124 41 315 0.0 0.0 0.00 0.00 0.00 93 1017.6
20190424112126 41 315 0.0 0.0 0.00 0.00 0.00 94 1017.4
20190424111122 40 23 0.0 0.0 0.00 0.00 0.00 95 1017.2
20190424110122 40 360 0.0 0.0 0.00 0.00 0.00 95 1017.0
20190424105122 40 23 0.0 0.0 0.00 0.00 0.00 95 1016.9
20190424104122 40 338 0.0 0.0 0.00 0.00 0.00 95 1016.6
20190424103142 40 360 0.0 0.0 0.00 0.00 0.00 94 1016.6
20190424102122 40 23 0.0 0.0 0.00 0.00 0.00 94 1016.7
20190424101123 41 360 0.0 0.0 0.00 0.00 0.00 94 1016.5
20190424100122 41 23 0.0 0.0 0.00 0.00 0.00 94 1016.5
20190424095123 41 360 0.0 0.0 0.00 0.00 0.00 93 1016.4
20190424094125 41 23 0.0 0.0 0.00 0.00 0.00 93 1016.4
20190424093122 41 23 0.0 0.0 0.00 0.00 0.00 92 1016.4
20190424092122 41 23 0.0 0.0 0.00 0.00 0.00 92 1016.3
20190424091123 42 360 0.0 0.0 0.00 0.00 0.00 92 1016.3
20190424090122 42 4 0.0 5.0 0.00 0.00 0.00 93 1016.5
20190424085123 42 23 0.0 0.0 0.00 0.00 0.00 94 1016.5
20190424084123 41 315 0.0 0.0 0.00 0.00 0.00 95 1016.4
20190424083123 41 23 0.0 0.0 0.00 0.00 0.00 96 1016.4
20190424082123 42 338 0.0 0.0 0.00 0.00 0.00 95 1016.5
20190424081122 42 315 0.0 0.0 0.00 0.00 0.00 94 1016.6
20190424080122 42 315 0.0 0.0 0.00 0.00 0.00 92 1016.5
20190424075123 43 315 0.0 0.0 0.00 0.00 0.00 91 1016.4
20190424074123 43 315 0.0 0.0 0.00 0.00 0.00 91 1016.3
20190424073122 44 315 0.0 0.0 0.00 0.00 0.00 89 1016.3
20190424072122 44 315 0.0 0.0 0.00 0.00 0.00 89 1016.3
20190424071122 44 270 0.0 0.0 0.00 0.00 0.00 89 1016.3
20190424070126 45 270 0.0 0.0 0.00 0.00 0.00 89 1016.3
20190424065122 45 270 0.0 0.0 0.00 0.00 0.00 89 1016.1
20190424064122 45 270 0.0 0.0 0.00 0.00 0.00 89 1016.1
20190424063123 44 270 0.0 0.0 0.00 0.00 0.00 89 1016.1
20190424062122 44 270 0.0 0.0 0.00 0.00 0.00 89 1016.3
20190424061122 45 270 0.0 0.0 0.00 0.00 0.00 89 1016.4
20190424060122 45 315 0.0 0.0 0.00 0.00 0.00 89 1016.4
20190424055124 45 270 0.0 0.0 0.00 0.00 0.00 91 1016.5
20190424054123 45 293 0.0 0.0 0.00 0.00 0.00 91 1016.5
20190424053122 45 270 0.0 0.0 0.00 0.00 0.00 90 1016.5
20190424052123 46 270 0.0 0.0 0.00 0.00 0.00 90 1016.4
20190424051124 46 270 0.0 0.0 0.00 0.00 0.00 90 1016.4
20190424050123 46 270 0.0 0.0 0.00 0.00 0.00 89 1016.3
20190424045122 47 293 0.0 0.0 0.00 0.00 0.00 88 1016.6
20190424044123 48 270 0.0 0.0 0.00 0.00 0.00 88 1016.4
20190424043122 48 270 0.0 0.0 0.00 0.00 0.00 88 1016.4
20190424042122 48 293 0.0 0.0 0.00 0.00 0.00 89 1016.5
20190424041122 48 248 0.0 0.0 0.00 0.00 0.00 89 1016.3
20190424040122 48 270 0.0 0.0 0.00 0.00 0.00 88 1016.3
20190424035122 48 270 0.0 0.0 0.00 0.00 0.00 88 1016.2
20190424034122 49 270 0.0 0.0 0.00 0.00 0.00 88 1016.1
20190424033122 49 270 0.0 0.0 0.00 0.00 0.00 87 1016.1
20190424032122 49 270 0.0 0.0 0.00 0.00 0.00 87 1016.1
20190424031123 49 293 0.0 0.0 0.00 0.00 0.00 86 1016.0
20190424030122 49 270 0.0 0.0 0.00 0.00 0.00 86 1016.1
20190424025123 49 270 0.0 0.0 0.00 0.00 0.00 86 1015.9
20190424024126 50 270 0.0 0.0 0.00 0.00 0.00 85 1015.8